Regional Weather Roundup
Issued by NWS

Home | Current Version | Previous Version | Graphics & Text | Print | Product List | Glossary On
Versions: 1 2 3 4 5 6 7 8 9 10 11 12 13 14 15 16 17 18 19 20 21 22 23 24 25 26 27 28 29 30 31 32 33 34 35 36 37 38 39 40 41 42 43 44 45 46 47 48 49 50
000
ASUS44 KMEG 301110
RWRTN
TENNESSEE HOURLY STATE WEATHER ROUNDUP
NATIONAL WEATHER SERVICE MEMPHIS TN
600 AM CDT SAT AUG 30 2014

TNZ002-004-019-021-049-052-054-088>092-301200-
WEST TENNESSEE

CITY           SKY/WX    TMP DP  RH WIND       PRES   REMARKS
MEMPHIS INTL   CLOUDY    77  71  82 SW5       30.02R
NWS MEMPHIS      N/A     77 N/A N/A MISG        N/A
JACKSON        MOCLDY    73  67  81 S3        30.02R
DYERSBURG      CLOUDY    75  63  64 CALM      30.01S
UNION CITY     PTCLDY    72  70  94 CALM      30.00R
PARIS          CLEAR     70  63  78 S3        30.02S
HUNTINGDON     MOCLDY    71  65  81 S6        30.02S
LEXINGTON      CLEAR     70  66  88 CALM      30.03S
SAVANNAH       CLEAR     73  68  83 CALM      30.05R
$$

TNZ008-025-027-028-033-062-065-066-301200-
NORTH MIDDLE TENNESSEE

CITY           SKY/WX    TMP DP  RH WIND       PRES   REMARKS
NASHVILLE      MOCLDY    70  64  81 S3        30.06R
DICKSON        PTCLDY    72  63  73 S8        30.05S
PORTLAND       PTCLDY    72  64  78 S7        30.05S
CLARKSVILLE    MOCLDY    72  66  81 SE3       30.03R
LEBANON        PTCLDY    69  63  81 CALM      30.05R
SMYRNA         PTCLDY    69  65  87 SE6       30.08R
COOKEVILLE     CLEAR     66  64  94 CALM      30.11R
LIVINGSTON     MOCLDY    74  58  57 S5        30.12
GALLATIN       PTCLDY    70  68  93 CALM      30.07S
CROSSVILLE     MOCLDY    72  60  66 CALM      30.17R
$$

TNZ061-075-076-078-094-096-097-301200-
SOUTH MIDDLE TENNESSEE

CITY           SKY/WX    TMP DP  RH WIND       PRES   REMARKS
LEWISBURG      PTCLDY    72  63  73 CALM      30.07R
FAYETTEVILLE   CLEAR     72  61  68 CALM      30.09S
TULLAHOMA      CLEAR     70  63  78 CALM      30.11S
WINCHESTER     CLEAR     72  64  78 E3        30.10F
MCMINNVILLE    CLEAR     66  66 100 CALM      30.11R
COLUMBIA         N/A     70  70 100 CALM      30.05S
SHELBYVILLE    CLEAR     72  66  83 E3        30.09S
$$

TNZ017-018-042-046-047-301200-
NORTHEAST TENNESSEE

CITY           SKY/WX    TMP DP  RH WIND       PRES   REMARKS
TRI CITIES     PTCLDY    65  63  93 CALM      30.20R
ELIZABETHTON   SUNNY     64  63  94 CALM      30.22R
$$

TNZ012-013-036-069-073-074-301200-
CENTRAL EAST TENNESSEE

CITY           SKY/WX    TMP DP  RH WIND       PRES   REMARKS
KNOXVILLE      PTCLDY    69  66  90 N5        30.13R
OAK RIDGE      MOCLDY    68  66  93 CALM      30.15R
GATLINBURG     SUNNY     64  63  94 CALM      30.14R
MORRISTOWN     SUNNY     66  66 100 NE3       30.17R
$$

TNZ083-085-099-301200-
SOUTHEAST TENNESSEE

CITY           SKY/WX    TMP DP  RH WIND       PRES   REMARKS
CHATTANOOGA    MOCLDY    70  66  87 CALM      30.12R
$$

SKY/WX REPORTED AS FAIR MEANS FEW OR NO CLOUDS BELOW
12 THOUSAND FEET.



USA.gov is the U.S. government's official web portal to all federal, state and local government web resources and services.